[[{"header":{"parameterUnit":"m.s-1","parameterCategory":1,"la1":30.2991,"la2":30.254,"lo1":-89.0895,"lo2":-89.0444,"dy":0.0017,"dx":0.0017,"nx":28,"ny":28,"refTime":"2026-02-09T09:00:00:Z","depth":0,"parameterNumber":2,"parameterNumberName":"U-component_of_WINDS"},"data":[0,0,0,0,0,0,0,0,0,0,0,0,0,0,0,0,0,0,0,0,0,0,0,0,0,0,0,0,0,0,0,0,0,0,0,0,0,0,0,0,0,0,0,0,0,0,0,0,0,0,0,0,0,0,0,0,0,0,0.4836,0.4838,0,0.5036,0.5038,0.504,0.5072,0.507,0.5069,0.5067,0.5279,0.5286,0.5293,0,0,0,0,0,0,0,0,0,0,0,0,0,0.449,0.4496,0.4836,0.4838,0.4841,0.5035,0.5038,0.5041,0.5072,0.507,0.5068,0.5066,0.5277,0.5285,0.5294,0,0,0,0,0,0,0,0,0,0,0,0,0,0.466,0.4498,0.4835,0.488,0.4886,0.5035,0.5038,0.5041,0.5073,0.507,0.5068,0.5065,0.5274,0.5284,0.5295,0.5416,0,0,0.5329,0.5333,0,0,0,0,0,0,0,0,0.465,0.4673,0.4871,0.4877,0.4884,0.5026,0.4994,0.5167,0.5074,0.5002,0.5067,0.5064,0.5198,0.5215,0.5258,0.5426,0.5435,0.533,0.5336,0.5341,0.5344,0,0,0,0,0,0,0,0.4639,0.4664,0.4915,0.4874,0.4882,0.4893,0.4914,0.5027,0.5113,0.5008,0.5011,0.5034,0.5201,0.5247,0.5263,0.5438,0.5329,0.5339,0.5346,0.535,0.5719,0.5722,0,0,0,0,0,0,0.4618,0.4654,0.4909,0.4921,0.4758,0.4901,0.4925,0.4983,0.5111,0.5128,0.5036,0.5034,0.523,0.5251,0.5271,0.5423,0.5341,0.5351,0.5358,0.5716,0.572,0.5723,0,0,0,0,0,0,0.461,0.464,0.4901,0.4788,0.4822,0.491,0.4975,0.4989,0.5035,0.5132,0.5148,0.5067,0.5229,0.5256,0.538,0.5431,0.5356,0.5366,0.5712,0.5717,0.5721,0.5727,0,0,0,0,0,0,0.46,0.4637,0.4682,0.4789,0.4828,0.5004,0.4978,0.4994,0.5053,0.5053,0.5166,0.5182,0.5229,0.5363,0.5391,0.5445,0.5375,0.5708,0.5714,0.572,0.5723,0.5731,0.5739,0,0,0,0,0,0.4587,0.4676,0.4684,0.4714,0.4885,0.5006,0.5029,0.5079,0.5057,0.5105,0.5167,0.5179,0.542,0.5376,0.5407,0.5465,0.5705,0.5712,0.5719,0.5719,0.573,0.5739,0,0,0,0,0,0,0.4575,0.4691,0.4701,0.4826,0.4906,0.5011,0.5072,0.5088,0.5177,0.5174,0.5234,0.5259,0.5381,0.5436,0.5384,0.559,0.5561,0.5575,0.555,0.5561,0.5569,0.5555,0.5384,0,0,0,0,0,0.4586,0.4672,0.477,0.4872,0.4911,0.4985,0.5039,0.507,0.5156,0.5191,0.5263,0.5348,0.5443,0.5505,0.5598,0.573,0.5757,0.5786,0.5794,0.58,0.5812,0.5889,0.5903,0.5747,0.5747,0.5747,0,0,0.4612,0.4686,0.4737,0.4871,0.4936,0.5027,0.5013,0.5109,0.5178,0.5207,0.5328,0.5384,0.5483,0.5612,0.5673,0.5662,0.5861,0.5809,0.5813,0.5822,0.5898,0.5912,0.5926,0.5752,0.5751,0.575,0,0,0.4705,0.4768,0.4861,0.4926,0.5025,0.5073,0.5095,0.5199,0.5237,0.5359,0.5383,0.5467,0.5629,0.57,0.5757,0.5878,0.5894,0.5907,0.595,0.6024,0.6037,0.6048,0.6094,0.6109,0.5918,0.5918,0.5918,0,0.4725,0.4859,0.4907,0.5002,0.5062,0.509,0.5186,0.5248,0.5373,0.5415,0.54,0.5605,0.5674,0.5822,0.5851,0.5895,0.5926,0.5895,0.603,0.6042,0.6054,0.6098,0.6115,0.5919,0.5919,0.5919,0.5919,0,0.488,0.4973,0.5037,0.5155,0.5222,0.5317,0.5382,0.5445,0.547,0.5521,0.5648,0.5731,0.5843,0.588,0.5906,0.6032,0.6022,0.6017,0.599,0.6069,0.6112,0.6129,0.5921,0.592,0.592,0.592,0,0,0.4972,0.5114,0.5137,0.5192,0.5303,0.5378,0.5475,0.5582,0.5636,0.5721,0.5807,0.5944,0.5941,0.6006,0.6041,0.6106,0.62,0.6095,0.6098,0.6113,0.6347,0.6351,0.637,0.621,0.6213,0.6216,0.634,0,0.5079,0.5252,0.5298,0.5446,0.5535,0.5563,0.5649,0.5728,0.5779,0.5864,0.5921,0.6018,0.6005,0.6045,0.611,0.6174,0.6248,0.6166,0.6294,0.6298,0.627,0.6392,0.6397,0.6509,0.6357,0.636,0.6362,0,0.5228,0.5315,0.547,0.5572,0.5611,0.5686,0.5789,0.5869,0.5961,0.5993,0.6066,0.6095,0.6202,0.6167,0.6317,0.626,0.6315,0.6355,0.636,0.6376,0.6336,0.6414,0.6546,0.6564,0.6388,0.6386,0.6384,0,0.5282,0.5438,0.5552,0.5597,0.5718,0.5771,0.5824,0.5913,0.5974,0.6065,0.6107,0.6209,0.6266,0.6346,0.6404,0.6373,0.655,0.6519,0.6583,0.6582,0.6621,0.6618,0.6766,0.6652,0.6652,0.6652,0.6651,0,0.5399,0.5494,0.5578,0.5648,0.5756,0.581,0.5917,0.5971,0.605,0.6134,0.6165,0.6244,0.6314,0.6403,0.6449,0.6568,0.6593,0.6625,0.6636,0.6623,0.662,0.6662,0.6656,0.6656,0.6655,0.6654,0.6654,0,0.5478,0.5538,0.5664,0.5767,0.5796,0.5871,0.5961,0.6032,0.6084,0.619,0.6218,0.63,0.6407,0.6471,0.6607,0.6638,0.677,0.6777,0.6738,0.6744,0.6805,0.6799,0.6988,0.7016,0.6881,0.6882,0.6883,0,0.555,0.5623,0.5734,0.5791,0.5844,0.5936,0.5999,0.6056,0.6121,0.6231,0.629,0.6398,0.6487,0.6657,0.6731,0.6836,0.6847,0.6906,0.6863,0.6849,0.6851,0.6847,0.6856,0.6914,0.6915,0.6916,0.6917,0,0.5672,0.5697,0.5785,0.5885,0.5958,0.604,0.6121,0.6167,0.6238,0.631,0.6418,0.6487,0.6625,0.6733,0.6844,0.6903,0.6923,0.6929,0.695,0.6939,0.6914,0.6931,0.676,0.6925,0.6924,0.6924,0.6923,0.6923,0.5751,0.5819,0.5907,0.6005,0.6072,0.6147,0.6219,0.6279,0.637,0.6485,0.6513,0.6628,0.672,0.6871,0.6932,0.7024,0.7016,0.7045,0.7053,0.706,0.7063,0.6897,0.7045,0.7045,0.7044,0.7044,0.7044,0,0.5877,0.5935,0.6024,0.6136,0.6214,0.6223,0.6314,0.6379,0.6478,0.6561,0.6649,0.6774,0.688,0.6962,0.7071,0.7129,0.7142,0.7156,0.7154,0.7167,0.7063,0.7035,0.7144,0.7144,0.7144,0.7144,0.7144,0.7144,0.5951,0.6067,0.6103,0.6253,0.6311,0.6421,0.6473,0.6544,0.6611,0.6749,0.6836,0.6887,0.6971,0.7087,0.7185,0.7207,0.7247,0.726,0.7284,0.7185,0.7174,0.7164,0.7138,0.7268,0.7268,0.7381,0.7382,0.7383]},{"header":{"parameterUnit":"m.s-1","parameterCategory":1,"la1":30.2991,"la2":30.254,"lo1":-89.0895,"lo2":-89.0444,"dy":0.0017,"dx":0.0017,"nx":28,"ny":28,"refTime":"2026-02-09T09:00:00:Z","depth":0,"parameterNumber":3,"parameterNumberName":"V-component_of_WINDS"},"data":[0,0,0,0,0,0,0,0,0,0,0,0,0,0,0,0,0,0,0,0,0,0,0,0,0,0,0,0,0,0,0,0,0,0,0,0,0,0,0,0,0,0,0,0,0,0,0,0,0,0,0,0,0,0,0,0,0,0,0.3453,0.3454,0,0.3552,0.3554,0.3555,0.3573,0.3572,0.3571,0.357,0.3675,0.3678,0.3682,0,0,0,0,0,0,0,0,0,0,0,0,0,0.3282,0.3285,0.3453,0.3454,0.3456,0.3552,0.3554,0.3555,0.3573,0.3572,0.3571,0.357,0.3674,0.3678,0.3682,0,0,0,0,0,0,0,0,0,0,0,0,0,0.3367,0.3286,0.3453,0.3476,0.3479,0.3552,0.3554,0.3555,0.3573,0.3572,0.3571,0.3569,0.3672,0.3677,0.3683,0.374,0,0,0.3699,0.3701,0,0,0,0,0,0,0,0,0.3362,0.3373,0.3471,0.3475,0.3478,0.3549,0.3532,0.3618,0.3573,0.3537,0.357,0.3569,0.3634,0.3643,0.3664,0.3745,0.375,0.37,0.3703,0.3705,0.3707,0,0,0,0,0,0,0,0.3356,0.3369,0.3493,0.3473,0.3477,0.3483,0.3493,0.3548,0.3592,0.3541,0.3542,0.3553,0.3636,0.3659,0.3667,0.3751,0.3699,0.3704,0.3707,0.3709,0.3886,0.3887,0,0,0,0,0,0,0.3345,0.3364,0.3489,0.3496,0.3416,0.3487,0.3498,0.3527,0.3591,0.36,0.3554,0.3554,0.365,0.366,0.367,0.3743,0.3705,0.371,0.3713,0.3884,0.3886,0.3888,0,0,0,0,0,0,0.3342,0.3356,0.3485,0.343,0.3447,0.3491,0.3523,0.353,0.3553,0.3601,0.361,0.357,0.365,0.3663,0.3723,0.3746,0.3712,0.3717,0.3882,0.3885,0.3887,0.3887,0,0,0,0,0,0,0.3337,0.3355,0.3377,0.343,0.345,0.3535,0.3525,0.3533,0.3562,0.3562,0.3618,0.3626,0.365,0.3715,0.3728,0.3753,0.3721,0.3881,0.3883,0.3886,0.3885,0.3889,0.3892,0,0,0,0,0,0.3331,0.3373,0.3378,0.3393,0.3478,0.3537,0.3548,0.3573,0.3564,0.3586,0.3617,0.3624,0.3741,0.3721,0.3736,0.3763,0.3879,0.3883,0.3886,0.3884,0.3888,0.3892,0,0,0,0,0,0,0.3323,0.3381,0.3386,0.3448,0.3487,0.354,0.3569,0.3578,0.3621,0.362,0.365,0.3663,0.3721,0.3748,0.3724,0.3822,0.381,0.3816,0.3803,0.3808,0.3811,0.3804,0.3726,0,0,0,0,0,0.3328,0.337,0.3419,0.3468,0.3488,0.3525,0.3552,0.3568,0.361,0.3627,0.3663,0.3704,0.3751,0.378,0.3826,0.3889,0.3902,0.3915,0.3918,0.3921,0.3927,0.3963,0.3969,0.3899,0.3898,0.3898,0,0,0.334,0.3376,0.3401,0.3468,0.35,0.3544,0.3539,0.3586,0.3619,0.3635,0.3693,0.3721,0.3769,0.3831,0.386,0.3855,0.3949,0.3925,0.3927,0.3931,0.3967,0.3973,0.3979,0.3901,0.39,0.39,0,0,0.3383,0.3415,0.346,0.3492,0.3541,0.3565,0.3576,0.3627,0.3646,0.3705,0.3718,0.3758,0.3837,0.3871,0.3899,0.3955,0.3963,0.3969,0.3988,0.4022,0.4028,0.4033,0.4054,0.4061,0.3974,0.3974,0.3974,0,0.3392,0.3458,0.3482,0.3528,0.3558,0.3572,0.3619,0.3649,0.3711,0.3731,0.3724,0.3823,0.3857,0.3927,0.3941,0.3962,0.3976,0.3963,0.4025,0.403,0.4036,0.4056,0.4063,0.3974,0.3974,0.3974,0.3974,0,0.3466,0.3512,0.3542,0.36,0.3632,0.3678,0.3711,0.3741,0.3754,0.3779,0.384,0.388,0.3934,0.3952,0.3966,0.4024,0.402,0.4019,0.4007,0.4042,0.4062,0.407,0.3975,0.3975,0.3975,0.3975,0,0,0.3509,0.3579,0.359,0.3616,0.3671,0.3707,0.3754,0.3805,0.3831,0.3873,0.3913,0.3979,0.3978,0.401,0.4027,0.4057,0.41,0.4053,0.4054,0.4061,0.4168,0.4169,0.4178,0.4105,0.4107,0.4108,0.4164,0,0.356,0.3643,0.3666,0.3737,0.3779,0.3794,0.3835,0.3873,0.3898,0.3939,0.3966,0.4013,0.4008,0.4027,0.4057,0.4088,0.4122,0.4085,0.4145,0.4146,0.4133,0.4188,0.4189,0.424,0.4172,0.4173,0.4174,0,0.363,0.3672,0.3747,0.3796,0.3815,0.3851,0.39,0.3938,0.3982,0.3998,0.4033,0.4048,0.4098,0.4082,0.4152,0.4126,0.4152,0.4171,0.4174,0.4181,0.4163,0.4197,0.4257,0.4265,0.4186,0.4185,0.4184,0,0.3654,0.373,0.3784,0.3806,0.3865,0.389,0.3916,0.3958,0.3988,0.4031,0.4051,0.4099,0.4126,0.4164,0.4192,0.4178,0.426,0.4247,0.4275,0.4275,0.4293,0.4292,0.4358,0.4308,0.4308,0.4308,0.4308,0,0.3709,0.3755,0.3796,0.3829,0.3881,0.3907,0.3958,0.3984,0.4022,0.4062,0.4077,0.4114,0.4148,0.419,0.4212,0.4267,0.4279,0.4294,0.43,0.4293,0.4291,0.4311,0.4309,0.431,0.4309,0.4309,0.4309,0,0.3746,0.3775,0.3835,0.3885,0.3899,0.3935,0.3978,0.4012,0.4036,0.4086,0.41,0.4139,0.4189,0.422,0.4284,0.4299,0.4359,0.4363,0.4344,0.4347,0.4374,0.4372,0.4457,0.447,0.441,0.4411,0.4411,0,0.3779,0.3814,0.3867,0.3895,0.392,0.3964,0.3994,0.4022,0.4052,0.4105,0.4132,0.4183,0.4225,0.4304,0.4339,0.4388,0.4394,0.442,0.4402,0.4394,0.4395,0.4393,0.4397,0.4424,0.4424,0.4425,0.4425,0,0.3835,0.3848,0.389,0.3937,0.3973,0.4011,0.405,0.4072,0.4106,0.414,0.4191,0.4223,0.4288,0.4338,0.439,0.4417,0.4428,0.4431,0.444,0.4434,0.4422,0.443,0.4354,0.4429,0.4428,0.4428,0.4428,0.4428,0.3872,0.3904,0.3946,0.3993,0.4025,0.4061,0.4095,0.4123,0.4166,0.422,0.4234,0.4287,0.4331,0.4401,0.4429,0.4472,0.4468,0.4482,0.4485,0.4489,0.4489,0.4414,0.4482,0.4481,0.4481,0.4481,0.4481,0,0.393,0.3958,0.4,0.4054,0.409,0.4095,0.4138,0.4169,0.4215,0.4255,0.4295,0.4354,0.4403,0.4441,0.4492,0.4518,0.4524,0.4531,0.453,0.4536,0.4489,0.4477,0.4525,0.4525,0.4525,0.4525,0.4525,0.4525,0.3964,0.4019,0.4036,0.4107,0.4135,0.4187,0.4211,0.4244,0.4276,0.434,0.438,0.4405,0.4444,0.4497,0.4542,0.4553,0.4571,0.4576,0.4588,0.4544,0.4539,0.4534,0.4523,0.458,0.458,0.4631,0.4631,0.4631]}]]